www.pogodaiklimat.ru

Погода и климат >> Архив погоды >> Россия >> город Москва >> Москва


АРХИВ ПОГОДЫ в Москве

Время (UTC), дата Ветер
(напр.,м/с)
 
Видим.   Явления Облачность Т
(С)
Тd
(С)
f
(%)
Тe
(С)
Тes
(С)
Комфортность P
(гПа)
Po
(гПа)
Тmin
(С)
Tmax
(С)
R
(мм)
R24
(мм)
S
(см)
06 13.05 С 2 10 км {ливн. осадки} 10/10 1000 м
[Sc]
+14.7 +11.3 80 +14 +14 по сезону 1024.6 1005.7 +14.0 1
09 13.05 С 3 10 км 8/8 1000 м
[Sc]
+17.1 +11.5 70 +17 +19 тепло 1023.4 1004.6
12 13.05 С 3 10 км 8/3 600 м
[Cu hum Ac cast]
+20.6 +10.6 53 +23 +26 комфорт 1022.3 1003.8
15 13.05 С 3 10 км 8/5 1000 м
[Sc Ac trans]
+19.9 +10.2 54 +22 +22 комфорт 1021.1 1002.6
18 13.05 С 2 10 км 5/5 600 м
[Sc diur, vesp]
+18.0 +9.2 56 +19 +19 тепло 1021.0 1002.3 +20.9
21 13.05 С 2 н/о 10/10 600 м
[Sc]
+16.1 +9.5 65 +16 +16 тепло 1020.8 1002.0
00 14.05 С 2 н/о 10/10 600 м
[Sc]
+14.6 +9.6 72 +14 +14 тепло 1019.5 1000.7
03 14.05 С 2 10 км 10/10 600 м
[Sc]
+13.7 +10.5 81 +13 +13 тепло 1019.3 1000.4 +13.6
06 14.05 С 2 10 км 10/10 600 м
[Sc]
+14.7 +11.1 79 +14 +14 по сезону 1019.5 1000.7 +13.6
09 14.05 С 2 10 км 9/5 600 м
[Sc Ac trans Ci sp]
+17.1 +12.6 75 +17 +22 тепло 1018.8 1000.1
12 14.05 С 2 10 км 10/6 600 м
[Sc Ac As]
+17.8 +13.1 74 +18 +20 по сезону 1019.1 1000.5
15 14.05 С 2 10 км 9/9 600 м
[Sc]
+19.1 +13.2 69 +21 +21 комфорт 1018.2 999.7
18 14.05 С 2 10 км 10/10 600 м
[Sc]
+17.4 +13.4 77 +18 +18 тепло 1018.5 999.9 +19.5
21 14.05 С 1 н/о дымка ясно +14.8 +12.7 87 +15 +15 тепло 1018.4 999.6
00 15.05 С 1 н/о дымка 1/0
[Ac trans]
+13.7 +12.2 91 +14 +14 тепло 1018.3 999.5
03 15.05 С 2 4000 м дымка 8/6 600 м
[Sc Ac trans Ci fib]
+14.5 +12.2 86 +14 +14 тепло 1018.5 999.6 +13.2
06 15.05 С 3 10 км 10/3 1000 м
[Sc Ac trans Ci fib]
+18.5 +11.7 65 +19 +22 тепло 1018.2 999.6 +13.2
09 15.05 С 3 10 км 9/8 600 м
[Cu med, cong Ac lent Ci fib]
+21.4 +10.7 50 +23 +25 комфорт 1017.9 999.5
12 15.05 С 3 10 км 10/10 600 м
[Cu Sc]
+20.1 +11.7 58 +22 +22 комфорт 1018.0 999.6
15 15.05 штиль 0 4000 м слаб. ливневой дождь 10/10 600 м
[Cb calv]
+16.2 +15.6 96 +16 +16 по сезону 1018.8 1000.1 5
18 15.05 С 1 4000 м слаб. ливневой дождь 10/10 600 м
[Cb calv]
+14.9 +12.9 88 +15 +15 тепло 1020.0 1001.1 +22.5 9
21 15.05 С 2 н/о слаб. ливневой дождь 10/10 600 м
[Cb calv]
+12.5 +9.4 81 +12 +12 по сезону 1021.1 1002.1
00 16.05 С 2 н/о в посл. час ливневой снег 10/10
[St]
+9.8 +6.3 79 +8 +8 по сезону 1022.0 1002.8
03 16.05 С 2 4000 м дымка 4/4 600 м
[Sc]
+9.0 +3.6 69 +7 +8 прохладно 1022.5 1003.2 +9.0 9
06 16.05 С 3 10 км {ливн. осадки} 4/0
[Ci]
+12.5 +4.2 57 +11 +18 по сезону 1023.2 1004.1 +9.0 6
09 16.05 С 4 10 км 1/0
[Ci fib]
+16.4 +1.5 37 +16 +25 по сезону 1023.3 1004.4
12 16.05 С 3 10 км 6/0
[Ci fib]
+17.7 +1.2 33 +18 +26 по сезону 1023.6 1004.9
15 16.05 СВ 3 10 км 5/0
[Ci fib]
+16.7 -0.6 31 +17 +19 тепло 1023.9 1005.1
18 16.05 С 1 10 км 4/0
[Ci fib]
+13.3 -2.3 34 +14 +14 по сезону 1025.3 1006.2 +18.4
21 16.05 С 2 н/о ясно +11.0 -1.4 42 +10 +10 по сезону 1026.1 1006.9
00 17.05 СВ 1 н/о ясно +8.6 -0.8 52 +8 +8 по сезону 1026.6 1007.1
03 17.05 штиль 0 10 км ясно +7.4 +3.4 76 +7 +8 прохладно 1027.5 1008.0 +5.9
06 17.05 С 1 10 км ясно +14.4 -2.3 31 +15 +25 по сезону 1026.9 1007.8 +5.9
09 17.05 СВ 1 10 км ясно +16.7 -1.3 29 +18 +35 опасность
простуды
1025.7 1006.8
12 17.05 С 1 10 км ясно +18.4 -2.3 24 +20 +32 тепло 1023.7 1005.0
15 17.05 СЗ 1 10 км ясно +18.8 -1.8 25 +20 +23 тепло 1022.0 1003.3
18 17.05 штиль 0 10 км 5/0
[Cs]
+12.9 +3.5 53 +13 +13 по сезону 1021.5 1002.5 +20.3
21 17.05 штиль 0 н/о ясно +10.1 +4.1 66 +10 +10 по сезону 1021.4 1002.2
00 18.05 штиль 0 н/о ясно +8.6 +3.6 71 +8 +8 по сезону 1021.3 1002.0
03 18.05 штиль 0 10 км ясно +10.1 +5.0 71 +10 +11 по сезону 1021.4 1002.2 +8.1
06 18.05 С 2 10 км ясно +16.4 +3.7 43 +17 +25 тепло 1020.4 1001.6 +8.1
09 18.05 С 3 10 км ясно +18.9 +1.8 32 +19 +31 опасность
простуды
1019.8 1001.2
12 18.05 С 3 10 км ясно +20.4 +2.0 29 +21 +30 комфорт 1018.2 999.7
15 18.05 СЗ 2 10 км ясно +20.3 +1.0 28 +21 +24 комфорт 1016.8 998.3
18 18.05 штиль 0 10 км ясно +15.0 +5.1 52 +15 +15 по сезону 1017.0 998.2 +20.9
21 18.05 штиль 0 н/о ясно +11.6 +5.9 68 +11 +11 по сезону 1017.3 998.3
00 19.05 штиль 0 н/о ясно +11.1 +5.8 70 +11 +11 по сезону 1018.0 999.0
03 19.05 С 1 10 км ясно +11.2 +4.0 61 +11 +13 по сезону 1019.2 1000.1 +9.5
06 19.05 С 2 10 км ясно +16.3 +2.6 40 +17 +25 тепло 1019.0 1000.2 +9.5
09 19.05 С 4
{10}
10 км ясно +19.1 +2.8 34 +19 +29 тепло 1018.4 999.8
12 19.05 С 3
{11}
10 км 4/4 600 м
[Cu hum]
+20.7 +2.9 31 +21 +27 комфорт 1018.2 999.8
15 19.05 С 3 10 км 1/1 600 м
[Cu hum]
+20.1 +2.6 31 +21 +23 комфорт 1018.2 999.7
18 19.05 С 1 10 км ясно +16.8 +2.7 39 +18 +18 тепло 1019.0 1000.3 +21.0
21 19.05 штиль 0 н/о 6/0
[Ci fib]
+12.1 +0.4 45 +12 +12 по сезону 1021.0 1001.9
00 20.05 штиль 0 н/о 3/0
[Ci fib]
+7.3 +2.0 69 +7 +7 по сезону 1022.3 1002.9
03 20.05 штиль 0 10 км 3/0
[Ci fib]
+9.1 +5.7 79 +8 +10 прохладно 1022.8 1003.5 +6.6

 

Местоположение метеостанции Москва (город Москва, Россия): широта 55.83 долгота 37.62 высота над уровнем моря 156 м.

В архиве по умолчанию представлена погода в Москве за последнюю неделю. Архивные данные за месяц целиком и за предыдущие месяцы, начиная с января 2011 года, Вы можете получить, выбрав интересующий диапазон дат из раскрывающегося списка и нажав кнопку "Ввод!".


*Определитесь, кто Вы:
робот инопланетянин человек

Внимание! Время в таблицах - всемирное. Для получения местного времени необходимо прибавить поправку, которая равна 3 ч.

Смотрите также архив погоды в соседних городах и на ближайших метеорологических станциях:

Погода в Москве (Балчуг) (город Москва, Россия) (9 км)
Погода в Москве (Тушино) (город Москва, Россия) (12 км)
Погода в Долгопрудном (Московская область, Россия) (13 км)
Погода в Москве (Строгино) (город Москва, Россия) (14 км)
Погода в Красногорске (Московская область, Россия) (18 км)
Погода в Шереметьево (Московская область, Россия) (20 км)
Погода в Немчиновке (город Москва, Россия) (21 км)
Погода в Железнодорожном АМС (Московская область, Россия) (23 км)
Погода в Луговой (Московская область, Россия) (26 км)
Погода в Пушкино (Московская область, Россия) (26 км)

Пояснения к столбцам:

Ветер - указаны скорость ветра в м/с - средняя за 10 мин, порывы в срок и между сроками (в фигурных скобках) и направление, откуда дует ветер: С - северный, СВ - северо-восточный, В - восточный, ЮВ - юго-восточный, Ю - южный, ЮЗ - юго-западный, З - западный, СЗ - северо-западный.
Видимость - горизонтальная дальность видимости в метрах или километрах. При видимости от 1 до 10 км при отсутствии осадков обычно наблюдается дымка, при ухудшении видимости до 1 км и менее - туман. В сухую погоду видимость может ухудшаться дымом, пылью или мглою.
Явления - указаны атмосферные явления, наблюдавшиеся в срок или в последний час перед сроком; фигурными скобками обозначены явления, наблюдавшиеся между сроками (за 1-3 часа до срока); квадратными скобками обозначены град или гололедные отложения с указанием их диаметра в мм.
Облачность - указаны через наклонную черту общая и нижняя облачность в баллах и высота нижней границы облаков в метрах; квадратными скобками обозначены формы облаков: Ci - перистые, Cs - перисто-слоистые, Cc - перисто-кучевые, Ac - высококучевые, As - высокослоистые, Sc - слоисто-кучевые, Ns - слоисто-дождевые, Cu - кучевые, Cb - кучево-дождевые. Подробнее классификацию облаков см. в Атласе облаков (PDF).
T - Температура воздуха - температура, измеренная на высоте 2 м над землей.
Td - Температура точки росы - температура, при понижении до которой содержащийся в воздухе водяной пар достигнет насыщения.
f - Относительная влажность воздуха - влажноcть воздуха, измеренная на высоте 2 м над землей.
Te - Эффективная температура - температура, которую ощущает одетый по сезону человек в тени. Характеристика душности погоды. При расчете учитывается влияние влажности воздуха и скорости ветра на теплоощущения человека.
Tes - Эффективная температура на солнце - температура, которую ощущает человек, с поправкой на солнечный нагрев. Характеристика знойности погоды. Зависит от высоты солнца над горизонтом, облачности и скорости ветра. Ночью, в пасмурную погоду, а также при ветре 12 м/с и более поправка равна нулю.
P - Атмосферное давление - приведенное к уровню моря атмосферное давление.
Po - Атмосферное давление - измеренное на уровне метеостанции атмосферное давление.
Tmin - Минимальная температура - минимум температуры воздуха на высоте 2 м над землей.
Tmax - Максимальная температура - максимум температуры воздуха на высоте 2 м над землей.
R - Количество осадков - Количество выпавших осадков за период времени, мм. При наведении курсора мыши на число - период времени, за который выпало указанное количество осадков.
R24 - Количество осадков - Количество выпавших осадков за 24 часа, мм.
S - Снежный покров - Высота снежного покрова, см. При наведении курсора мыши на число - состояние снежного покрова и степень покрытия местности в баллах.